EST,Max TemperatureF,Mean TemperatureF,Min TemperatureF,Max Dew PointF,MeanDew PointF,Min DewpointF,Max Humidity, Mean Humidity, Min Humidity, Max Sea Level PressureIn, Mean Sea Level PressureIn, Min Sea Level PressureIn, Max VisibilityMiles, Mean VisibilityMiles, Min VisibilityMiles, Max Wind SpeedMPH, Mean Wind SpeedMPH, Max Gust SpeedMPH,PrecipitationIn, CloudCover, Events, WindDirDegrees
2013-2-1,28,24,19,14,10,3,74,56,40,30.20,29.93,29.74,20,18,10,25,18,34,0.00,2,,288
2013-2-2,28,22,15,18,12,7,93,72,40,30.25,30.15,30.04,20,14,2,15,11,24,0.00,4,Snow,257
2013-2-3,26,19,12,19,16,10,100,86,69,30.03,29.89,29.78,20,10,0,9,1,,0.00,5,Fog-Snow,274
2013-2-4,28,24,19,19,12,7,86,63,40,29.94,29.89,29.78,20,14,7,18,10,30,0.00,4,,286
2013-2-5,28,24,21,25,21,14,93,85,68,29.99,29.93,29.89,15,7,2,7,3,,0.00,8,Snow,170
2013-2-6,35,29,23,25,19,3,100,71,38,30.34,30.09,29.91,20,10,2,21,5,32,0.00,4,Snow,291
2013-2-7,28,22,15,16,11,7,79,61,47,30.50,30.43,30.34,20,15,10,9,2,,0.00,4,,119
2013-2-8,30,28,24,28,26,19,93,88,69,30.32,30.01,29.71,15,4,0,17,11,29,0.00,8,Snow,66
2013-2-9,30,24,10,25,13,1,100,66,34,30.32,30.03,29.79,20,13,0,23,12,32,0.00,3,Snow,349
2013-2-10,26,13,0,12,5,-4,92,71,46,30.48,30.39,30.31,20,15,10,6,1,,0.00,1,,310
2013-2-11,37,29,21,37,31,16,100,94,74,30.28,29.92,29.67,10,4,0,12,1,,0.00,8,Fog-Rain-Snow,290
2013-2-12,39,37,35,32,28,23,87,69,56,29.95,29.82,29.71,20,14,7,23,13,34,0.00,8,,286
2013-2-13,42,33,24,30,24,21,93,66,45,29.93,29.82,29.71,20,14,3,9,6,,0.00,5,Snow,303
2013-2-14,41,31,21,30,26,21,100,77,53,29.97,29.90,29.72,20,13,4,9,2,,0.00,2,Fog-Snow,238
2013-2-15,50,39,28,34,28,25,93,64,43,29.99,29.95,29.90,20,15,3,17,7,17,0.00,4,Rain-Snow,257
2013-2-16,33,30,26,30,23,14,100,76,55,29.99,29.91,29.76,15,9,2,17,8,29,0.00,7,Snow,35
2013-2-17,37,26,14,14,6,3,63,50,28,29.95,29.75,29.67,20,15,10,28,18,44,0.00,4,,327
2013-2-18,32,23,14,14,8,3,63,53,41,30.20,30.14,29.97,20,14,10,23,17,40,0.00,0,,282
2013-2-19,42,32,23,37,25,12,100,74,51,30.17,29.90,29.66,20,11,4,21,5,30,0.00,6,Rain,223
2013-2-20,33,28,21,23,17,12,74,63,55,29.94,29.81,29.69,20,16,10,29,18,36,0.00,4,,300
2013-2-21,30,26,21,16,14,12,74,65,55,30.32,30.05,29.94,20,18,10,25,19,34,0.00,3,,301
2013-2-22,35,25,15,27,20,14,93,72,56,30.41,30.33,30.29,20,17,10,9,4,,0.00,5,,77
2013-2-23,37,34,32,37,33,28,100,94,81,30.26,30.05,29.85,10,4,2,12,6,,0.00,8,Rain-Snow,85
2013-2-24,41,36,28,37,31,23,100,88,65,29.96,29.83,29.76,15,7,0,20,5,30,0.00,7,Fog-Snow,330
2013-2-25,41,32,23,28,25,21,93,75,57,30.24,30.13,29.99,20,14,10,9,3,,0.00,4,,301
2013-2-26,39,34,30,30,27,23,93,73,60,30.31,30.20,29.97,15,12,7,16,5,23,0.00,6,Rain-Snow,118
2013-2-27,44,38,32,43,37,30,100,93,87,29.94,29.67,29.52,20,6,1,23,15,34,0.00,8,Rain,91
2013-2-28,44,40,35,37,34,30,93,81,61,29.61,29.59,29.55,20,13,5,12,5,,0.00,6,Rain,286